Satellite: ASTRA 1B
Catalog number: 21139
Epoch time:      103057.00000000
Element set:     162 
Inclination:        0.0122 deg
RA of node:       319.8851 deg
Eccentricity:    0.0002995
Arg of perigee:    65.1991 deg
Mean anomaly:     149.4912 deg
Mean motion:    1.00273184 rev/day
Decay rate:    1.0400Epoch rev:            3226
Checksum:              226

Satellite: METEOSAT 5 (MO
Catalog number: 21140
Epoch time:      103056.76091723
Element set:     734 
Inclination:        5.6450 deg
RA of node:        69.8887 deg
Eccentricity:    0.0001688
Arg of perigee:   149.9948 deg
Mean anomaly:     272.1376 deg
Mean motion:    1.00275798 rev/day
Decay rate:    3.9999E-008 rev/day^2
Epoch rev:            4612
Checksum:              347

Satellite: NOAA 12
Catalog number: 21263
Epoch time:      103058.96215581
Element set:     990 
Inclination:       98.6274 deg
RA of node:        48.4312 deg
Eccentricity:    0.0013122
Arg of perigee:   358.9386 deg
Mean anomaly:       1.1763 deg
Mean motion:   14.25086734 rev/day
Decay rate:    1.8800E-006 rev/day^2
Epoch rev:           61255
Checksum:              305

Satellite: OSCAR 22 (UoSA
Catalog number: 21575
Epoch time:      103059.17187249
Element set:     736 
Inclination:       98.1415 deg
RA of node:        50.8095 deg
Eccentricity:    0.0008385
Arg of perigee:   101.2602 deg
Mean anomaly:     258.9529 deg
Mean motion:   14.39160519 rev/day
Decay rate:    2.1900E-006 rev/day^2
Epoch rev:           60966
Checksum:              326

Satellite: METEOR 3-5
Catalog number: 21655
Epoch time:  Element set:     588 
Inclination:       82.5559 deg
RA of node:        32.2364 deg
Eccentricity:    0.0013010
Arg of perigee:   170.6193 deg
Mean anomaly:     189.5174 deg
Mean motion:   13.16980777 rev/day
Decay rate:    5.1000E-007 rev/day^2
Epoch rev:           55471
Checksum:              308

Satellite: UARS
Catalog number: 21701
Epoch time:      103059.34087207
Element set:     835 
Inclination:       56.9834 deg
RA of node:       352.4982 deg
Eccentricity:    0.0004284
Arg of perigee:   111.5143 deg
Mean anomaly:     248.6338 deg
Mean motion:   15.02875479 rev/day
Decay rate:    4.6099E-006 rev/day^2
Epoch rev:           62718
Checksum:              327

Satellite: EUTELSAT 2-F3
Catalog number: 21803
Epoch time:      103052.80102402
Element set:     525 
Inclination:        2.6051 deg
RA of node:        89.0616 deg
Eccentricity:    0.0003779
Arg of perigee:   287.6256 deg
Mean anomaly:      84.7173 deg
Mean motion:    1.00281255 rev/day
Decay rate:    1.2299E-006 rev/day^2
Epoch rev:            3703
Checksum:              270

Satellite: INMARSAT 2-F3
Catalog number: 21814
Epoch time:      103058.43021021
Element set:     624 
Inclination:        1.7618 deg
RA of node:        58.4707 deg
Eccentricity:    0.0002817
Arg of perigee:   288.4470 deg
Mean anomaly: Mean motion:    1.00273244 rev/day
Decay rate:    9.4000E-007 rev/day^2
Epoch rev:            4098
Checksum:              377

Satellite: INMARSAT 2-F4
Catalog number: 21940
Epoch time:      103055.64438402
Element set:     573 
Inclination:        2.3921 deg
RA of node:        19.1809 deg
Eccentricity:    0.0002668
Arg of perigee:   212.0827 deg
Mean anomaly:     263.7763 deg
Mean motion:    1.00264880 rev/day
Decay rate:   -3.6399E-006 rev/day^2
Epoch rev:            3974
Checksum:              303

Satellite: EUTELSAT 2-F4
Catalog number: 22028
Epoch time:      103057.90296856
Element set:     333 
Inclination:        1.RA of node:        92.3742 deg
Eccentricity:    0.0006202
Arg of perigee:   237.6864 deg
Mean anomaly:     139.0226 deg
Mean motion:    1.00271809 rev/day
Decay rate:   -1.1700E-006 rev/day^2
Epoch rev:            3186
Checksum:              284

Satellite: OSCAR 23 (KITS
Catalog number: 22077
Epoch time:      103058.89686685
Element set:     234 
Inclination:       66.0867 deg
RA of node:       106.1953 deg
Eccentricity:    0.0015672
Arg of perigee:   271.1940 deg
Mean anomaly:      88.7284 deg
Mean motion:   12.86408819 rev/day
Decay rate:   -3.7000E-007 rev/day^2
Epoch rev:           49550
Checksum:              341

Satellite: ASCatalog number: 22653
Epoch time:      103057.00000000
Element set:     789 
Inclination:        0.0122 deg
RA of node:       319.8851 deg
Eccentricity:    0.0002995
Arg of perigee:    65.1991 deg
Mean anomaly:     149.5045 deg
Mean motion:    1.00273184 rev/day
Decay rate:    1.0400E-006 rev/day^2
Epoch rev:            3096
Checksum:              246

Satellite: METEOR 2-21
Catalog number: 22782
Epoch time:      103059.08073267
Element set:     529 
Inclination:       82.5488 deg
RA of node:       207.3490 deg
Eccentricity:    0.0021539
Arg of perigee:   322.0337 deg
Mean anomaly:      37.9331 deg
Mean motion:   13.83532842 rev/day
Decay rate:    5.1Epoch rev:           47940
Checksum:              303

Satellite: KITSAT B
Catalog number: 22825
Epoch time:      103059.55562140
Element set:     497 
Inclination:       98.2745 deg
RA of node:        88.7439 deg
Eccentricity:    0.0007588
Arg of perigee:   226.4709 deg
Mean anomaly:     133.5846 deg
Mean motion:   14.28945788 rev/day
Decay rate:    5.4999E-007 rev/day^2
Epoch rev:           49130
Checksum:              478

Satellite: POSAT 1
Catalog number: 22826
Epoch time:      103058.67419602
Element set:     321 
Inclination:       98.2740 deg
RA of node:        89.0260 deg
Eccentricity:    0.0007997
Arg of perigee:   232.2227 deg
Mean anomaly:     127.8225 deg
Mean motion:   14.29169206 rev/day
Decay rate:    9.0999E-007 rev/day^2
Epoch rev:           49122
Checksum:              323

Satellite: ITAMSAT
Catalog number: 22828
Epoch time:      103059.21230345
Element set:     436 
Inclination:       98.2711 deg
RA of node:        89.8020 deg
Eccentricity:    0.0009213
Arg of perigee:   205.5360 deg
Mean anomaly:     154.5369 deg
Mean motion:   14.29510660 rev/day
Decay rate:    5.3000E-007 rev/day^2
Epoch rev:           45950
Checksum:              384

Satellite: EYESAT A
Catalog number: 22829
Epoch time:      10305Element set:     461 
Inclination:       98.2717 deg
RA of node:        89.8871 deg
Eccentricity:    0.0009114
Arg of perigee:   207.2608 deg
Mean anomaly:     152.8086 deg
Mean motion:   14.29772226 rev/day
Decay rate:    1.1299E-006 rev/day^2
Epoch rev:           49135
Checksum:              350

Satellite: METEOSAT 6
Catalog number: 22912
Epoch time:      103058.76758852
Element set:     696 
Inclination:        2.6990 deg
RA of node:        82.4637 deg
Eccentricity:    0.0000606
Arg of perigee:   279.8702 deg
Mean anomaly:      80.4719 deg
Mean motion:    1.00264090 rev/day
Decay rate:    9.9999E-009 rev/day^2
Epoch rev:            3239
Checksum:              343

Satellite: GOES 8
Catalog number: 23051
Epoch time:      103059.29437971
Element set:     626 
Inclination:        0.3212 deg
RA of node:       102.7139 deg
Eccentricity:    0.0000835
Arg of perigee:   270.2645 deg
Mean anomaly:     176.0664 deg
Mean motion:    1.00274317 rev/day
Decay rate:   -2.7099E-006 rev/day^2
Epoch rev:            3990
Checksum:              285

Satellite: ASTRA 1D
Catalog number: 23331
Epoch time:      103058.80981258
Element set:     821 
Inclination:        0.0536 deg
RA of node:       217.2808 deg
Eccentricity:    0.0014898
Arg of perigee:   109.5945 deg
Mean anomaly:     14Mean motion:    1.00274316 rev/day
Decay rate:    1.2100E-006 rev/day^2
Epoch rev:            3096
Checksum:              271

Satellite: RADIO ROSTO
Catalog number: 23439
Epoch time:      103058.87234134
Element set:     684 
Inclination:       64.8161 deg
RA of node:        26.4361 deg
Eccentricity:    0.0146732
Arg of perigee:   113.4257 deg
Mean anomaly:     248.2175 deg
Mean motion:   11.27547638 rev/day
Decay rate:   -4.1000E-007 rev/day^2
Epoch rev:           33664
Checksum:              296

Satellite: NOAA 14
Catalog number: 23455
Epoch time:      103058.96076371
Element set:     544 
Inclination:       99.1864 deRA of node:        77.7754 deg
Eccentricity:    0.0009030
Arg of perigee:   199.4364 deg
Mean anomaly:     160.6464 deg
Mean motion:   14.13299685 rev/day
Decay rate:    5.6999E-007 rev/day^2
Epoch rev:           42080
Checksum:              473

Satellite: HIMAWARI 5 (GM
Catalog number: 23522
Epoch time:      103058.14729046
Element set:     122 
Inclination:        1.7817 deg
RA of node:        83.2798 deg
Eccentricity:    0.0000349
Arg of perigee:    99.2482 deg
Mean anomaly:     167.2931 deg
Mean motion:    1.00274469 rev/day
Decay rate:   -2.9800E-006 rev/day^2
Epoch rev:            2897
Checksum:              313

Satellite: HOTCatalog number: 23537
Epoch time:      103055.93642088
Element set:     538 
Inclination:        0.0930 deg
RA of node:       158.4148 deg
Eccentricity:    0.0007489
Arg of perigee:   128.2319 deg
Mean anomaly:     217.9136 deg
Mean motion:    1.00274434 rev/day
Decay rate:    7.4000E-007 rev/day^2
Epoch rev:            2903
Checksum:              282

Satellite: GOES 9
Catalog number: 23581
Epoch time:      103059.39412271
Element set:     537 
Inclination:        0.2483 deg
RA of node:       277.4890 deg
Eccentricity:    0.0011956
Arg of perigee:   247.2700 deg
Mean anomaly:     330.7497 deg
Mean motion:    1.00061469 rev/day
Decay rate:    8.7000EEpoch rev:            2846
Checksum:              297

